Aérodrome :
LOGIN :

S'inscrire | Disclaimer

   EN    FR    IT 

 










Légende :    VFR   VFR Marginal   IFR   IFR Intensif   IFR Très Intensif
Visi : 
Plafond : 
>= 8 km
>= 3000ft
5 à 8 km
1000 à 3000 ft
1500m à 5 km
500 à 1000 ft
800 à 1500m
200 à 500 ft
< 800m
< 200 ft
Symboles :   Orages  Brouillard  Fortes neiges  Fortes précipitations  Vent > 20 kt
SIGMETs :   Divers  Orages  Givrage  Turbulence  Onde Orograph.  Cendres Volcan.







- Altitude de l'aérodrome : 24 ft
- Code IATA : FAO


LPFR - Faro

DERNIER METAR :
  • 250430Z 00000KT CAVOK 16/15 Q1013

METARs EXPIRÉS :
  • 250400Z VRB01KT CAVOK 16/16 Q1013
  • 250330Z VRB02KT CAVOK 16/16 Q1013
  • 250300Z 22003KT 190V250 CAVOK 16/16 Q1013
  • 250230Z 22002KT CAVOK 16/16 Q1013
  • 250200Z 23003KT 190V260 CAVOK 16/16 Q1013

TAF TAF LPFR
Valide du 25 à 00h jusqu'au 26 à 00h UTC


242300Z 2500/2524 29007KT CAVOK
BECMG 2505/2507 VRB03KT
BECMG 2511/2513 21008KT
PROB30 2514/2517 12008KT 9999 SCT020
BECMG 2517/2519 VRB03KT
BECMG 2520/2522 30008KT
Pas de NOTAMs connus pour ce terrain.



MET'MAP, la Météo Aéronautique d'un coup d'oeil ! - Copyright ORBIFLY Décembre 2007 - Disclaimer

ORBIFLY MET'MAP TEAM :

Programmation & Développement : Alexandra Zaïnal
Conception & Développement : Baudouin d'Aumeries
Co-Programmation & Développement : Marc-Olivier Méhu
Soutien technique & logistique : Manuel Goepfert

Contact : metmap@orbifly.com




SOURCES & CREDITS :

   NOAA